Location: Copetón
(10.0045°N, 67.8273°W)
Time: 09:33:56
(UTC+00:00)

STARLINK-31458 - Pass Details

Date: 18 April 2024
Orbit: 443 x 445 km, 43.0° (Epoch: 18 May)

Event Time Altitude Azimuth Distance (km) Brightness Sun altitude
Rises 22:53:14 0° 324° (NW) 2,422 7.7 -3.5°
Reaches altitude 10° 22:55:27 10° 332° (NNW) 1,555 6.6 -4.1°
Maximum altitude 22:58:47 39° 43° (NE) 673 3.9 -4.9°
Drops below altitude 10° 23:02:08 10° 114° (ESE) 1,564 5.3 -5.7°
Enters shadow 23:02:52 - 118° (ESE) 1,845 5.7 -5.9°
